Location: Arcabell
(42.4308°N, 1.4823°E)
Time: 16:54:10
(UTC+00:00)

USA 276 - Visible Passes

Search period start: 18 January 2026 00:00
Search period end: 28 January 2026 00:00
Orbit: 366 x 369 km, 50.0° (Epoch: 12 July)

Date Brightness Start Highest point End Pass type
(mag) Time Alt. Az. Time Alt. Az. Time Alt. Az.
18 Jan 3.6 18:00:45 10° NW 18:02:23 16° N 18:03:02 15° NNE visible
19 Jan 3.7 17:48:29 10° NW 17:49:58 15° N 17:51:03 12° NNE visible
20 Jan 3.8 17:36:10 10° NW 17:37:33 14° N 17:38:59 10° NNE visible
21 Jan 3.8 17:23:48 10° NNW 17:25:04 13° N 17:26:23 10° NE visible
22 Jan 4.3 18:43:50 10° NW 18:44:22 14° NNW 18:44:22 14° NNW visible
23 Jan 3.3 18:31:10 10° NW 18:32:27 23° NNW 18:32:27 23° NNW visible
24 Jan 2.1 18:18:28 10° NW 18:20:38 40° NNE 18:20:38 40° NNE visible
25 Jan 1.6 18:05:44 10° NW 18:08:03 53° NNE 18:08:57 32° E visible
26 Jan 1.3 17:53:00 10° NW 17:55:19 74° NNE 17:57:28 13° ESE visible
27 Jan 1.5 17:40:16 10° WNW 17:42:32 78° SSW 17:45:05 10° SE visible
